Regional Weather Roundup
Issued by NWS

Home | Current Version | Previous Version | Graphics & Text | Print | Product List | Glossary On
Versions: 1 2 3 4 5 6 7 8 9 10 11 12 13 14 15 16 17 18 19 20 21 22 23 24 25 26 27 28 29 30 31 32 33 34 35 36 37 38 39 40 41 42 43 44 45 46 47 48 49 50
000
ASUS43 KOAX 272310
RWRNE

WEATHER ROUNDUP FOR NEBRASKA
NATIONAL WEATHER SERVICE OMAHA NE
600 PM CDT WED MAY 27 2015

NOTES: SATELLITE DATA IS BEING USED TO AUGMENT CLOUD COVER ABOVE
       12000 FEET.
       "FAIR" INDICATES FEW OR NO CLOUDS BELOW 12,000 FEET WITH NO
       SIGNIFICANT WEATHER AND/OR OBSTRUCTIONS TO VISIBILITY.

  * THESE STATIONS DO NOT REPORT WEATHER SUCH AS RAIN...SNOW OR FOG.

NEZ001>004-019>022-054>056-280000-
NEBRASKA PANHANDLE

CITY           SKY/WX    TMP DP  RH WIND       PRES   REMARKS
SCOTTSBLUFF    MOSUNNY   70  54  56 SE8       29.97R
ALLIANCE       CLOUDY    62  55  77 S6        29.98R
CHADRON        LGT RAIN  59  54  83 S3        29.94F
KIMBALL          N/A    N/A N/A N/A MISG        N/A
SIDNEY         PTSUNNY   68  52  56 E14       30.02F
$$

NEZ057>060-069>072-079>082-280000-
SOUTHWEST NEBRASKA

CITY           SKY/WX    TMP DP  RH WIND       PRES   REMARKS
NORTH PLATTE   CLOUDY    71  54  54 SE10      30.01R
IMPERIAL       TSTM      64  59  83 NE9       30.00R
LEXINGTON      PTSUNNY   73  56  55 SE13G18   30.03F
MCCOOK         CLOUDY    71  57  61 E10       30.02R
OGALLALA       CLOUDY    68  58  71 SE13      30.01R
$$

NEZ005>010-023>029-035>040-094-280000-
NORTH CENTRAL NEBRASKA

CITY           SKY/WX    TMP DP  RH WIND       PRES   REMARKS
VALENTINE      PTSUNNY   76  50  40 SE17      29.95F
AINSWORTH      MOSUNNY   75  52  45 SE15      29.99S
BROKEN BOW     PTSUNNY   73  57  57 SE14      30.03F
O`NEILL        PTSUNNY   80  45  29 SE14G23   30.01F
ORD            CLOUDY    69  55  60 S13       30.01F
THEDFORD       LGT RAIN  72  52  48 S17       30.00F
$$

NEZ041-046>049-061>064-073>077-083>087-280000-
SOUTH CENTRAL NEBRASKA

CITY           SKY/WX    TMP DP  RH WIND       PRES   REMARKS
GRAND ISLAND   CLOUDY    76  53  44 W9        30.04F
AURORA         CLOUDY    79  43  27 S8G17     30.03S
HASTINGS       CLOUDY    77  54  44 S8        30.03F
HEBRON         MOSUNNY   82  47  29 SE8       30.03F
HOLDREGE       PTSUNNY   75  53  46 SE15      30.03S
KEARNEY *      CLOUDY    72  55  56 E7        30.04S
YORK           MOSUNNY   82  45  26 S10       30.03F
$$

NEZ011>018-030>034-042>045-280000-
NORTHEAST NEBRASKA

CITY           SKY/WX    TMP DP  RH WIND       PRES   REMARKS
NORFOLK        PTSUNNY   79  48  33 SE12      30.01F
ALBION         PTSUNNY   77  39  25 S9        30.02F
BLAIR          MOSUNNY   82  43  25 S7        30.04F
COLUMBUS *     PTSUNNY   81  41  24 SE12      30.04S
FREMONT        MOSUNNY   82  45  27 S6        30.04S
TEKAMAH        MOSUNNY   85  46  25 SW7       30.01F
WAYNE          MOSUNNY   78  54  42 S10       30.02S
$$

NEZ050>053-065>068-078-088>093-280000-
SOUTHEAST NEBRASKA

CITY           SKY/WX    TMP DP  RH WIND       PRES   REMARKS
LINCOLN        MOSUNNY   83  47  28 SE10      30.04F
OMAHA EPPLEY   CLOUDY    82  48  30 S7        30.03F
BEATRICE       MOSUNNY   80  50  35 S10       30.04F
NEBRASKA CITY  PTSUNNY   79  41  26 S7        30.05F
PLATTSMOUTH    PTSUNNY   82  43  25 S8        30.04F
$$

NEZ044-045-051>053-067-280000-
OMAHA AREA

CITY           SKY/WX    TMP DP  RH WIND       PRES   REMARKS
OMAHA EPPLEY   CLOUDY    82  48  30 S7        30.03F
BLAIR          MOSUNNY   82  43  25 S7        30.04F
FREMONT        MOSUNNY   82  45  27 S6        30.04S
MILLARD        PTSUNNY   82  48  30 S3        30.03F
OFFUTT AFB     PTSUNNY   81  52  36 SE5       30.03F
PLATTSMOUTH    PTSUNNY   82  43  25 S8        30.04F
WAHOO          FAIR      80  49  33 S6        30.04S
$$


USA.gov is the U.S. government's official web portal to all federal, state and local government web resources and services.